When you browse on this site, cookies collect data to enhance your experience and personalize the content and advertising you see.
Visit our Privacy Policy to learn more. By continuing to use the site, you agree to this use of cookies and data.
  • In Deutschland
  • Länderverzeichnis
  • Für 7 Tage
  • Wassertemperatur
  • Satellitenkarten
  • Wetterkarte
  • Widgets
  • user-avatar
    Anmelden

    Stündliche Wetter San Luis

    Heute, 25 Mai, Samstag

    Zeit Temperatur Niederschläge Wind Luftdruck Luftfeuchtigkeit
    00:00 +13°C° 0 mm 5 m/S 696 mmHg 21%
    01:00 +13°C° 0 mm 5 m/S 696 mmHg 22%
    02:00 +13°C° 0 mm 6 m/S 696 mmHg 23%
    03:00 +12°C° 0 mm 5 m/S 695 mmHg 24%
    04:00 +12°C° 0 mm 5 m/S 695 mmHg 25%
    05:00 +12°C° 0 mm 5 m/S 695 mmHg 26%
    06:00 +12°C° 0 mm 4 m/S 695 mmHg 28%
    07:00 +12°C° 0 mm 4 m/S 695 mmHg 30%
    08:00 +13°C° 0 mm 4 m/S 695 mmHg 31%
    09:00 +15°C° 0 mm 4 m/S 695 mmHg 29%
    10:00 +17°C° 0 mm 4 m/S 696 mmHg 26%
    11:00 +19°C° 0 mm 5 m/S 696 mmHg 24%
    12:00 +20°C° 0 mm 4 m/S 695 mmHg 23%
    13:00 +21°C° 0 mm 4 m/S 695 mmHg 23%
    14:00 +21°C° 0 mm 4 m/S 694 mmHg 22%
    15:00 +20°C° 0 mm 3 m/S 694 mmHg 26%
    16:00 +19°C° 0 mm 3 m/S 694 mmHg 30%
    17:00 +17°C° 0 mm 2 m/S 694 mmHg 34%
    18:00 +16°C° 0 mm 2 m/S 694 mmHg 36%
    19:00 +14°C° 0 mm 2 m/S 694 mmHg 39%
    20:00 +12°C° 0 mm 2 m/S 694 mmHg 42%
    21:00 +12°C° 0 mm 2 m/S 694 mmHg 43%
    22:00 +10°C° 0 mm 2 m/S 694 mmHg 44%
    23:00 +10°C° 0 mm 2 m/S 694 mmHg 46%

    Morgen, 26 Mai, Sonntag

    Zeit Temperatur Niederschläge Wind Luftdruck Luftfeuchtigkeit
    00:00 +10°C° 0 mm 2 m/S 694 mmHg 49%
    01:00 +10°C° 0 mm 2 m/S 694 mmHg 51%
    02:00 +10°C° 0 mm 3 m/S 694 mmHg 54%
    03:00 +9°C° 0 mm 2 m/S 694 mmHg 58%
    04:00 +9°C° 0 mm 2 m/S 694 mmHg 62%
    05:00 +8°C° 0 mm 2 m/S 693 mmHg 65%
    06:00 +10°C° 0 mm 1 m/S 694 mmHg 65%
    07:00 +10°C° 0 mm 1 m/S 694 mmHg 66%
    08:00 +10°C° 0 mm 1 m/S 695 mmHg 66%
    09:00 +12°C° 0 mm 1 m/S 696 mmHg 58%
    10:00 +15°C° 0 mm 1 m/S 697 mmHg 50%
    11:00 +18°C° 0 mm 1 m/S 698 mmHg 42%
    12:00 +19°C° 0 mm 1 m/S 697 mmHg 39%
    13:00 +18°C° 0 mm 2 m/S 697 mmHg 37%
    14:00 +19°C° 0 mm 2 m/S 697 mmHg 34%
    15:00 +18°C° 0 mm 2 m/S 697 mmHg 37%
    16:00 +18°C° 0 mm 3 m/S 697 mmHg 39%
    17:00 +17°C° 0 mm 3 m/S 697 mmHg 42%
    18:00 +14°C° 0 mm 3 m/S 697 mmHg 44%
    19:00 +13°C° 0 mm 3 m/S 697 mmHg 47%
    20:00 +11°C° 0 mm 4 m/S 697 mmHg 49%
    21:00 +11°C° 0 mm 3 m/S 698 mmHg 48%
    22:00 +11°C° 0 mm 3 m/S 698 mmHg 47%
    23:00 +10°C° 0 mm 3 m/S 698 mmHg 47%

    übermorgen, 27 Mai, Montag

    Zeit Temperatur Niederschläge Wind Luftdruck Luftfeuchtigkeit
    00:00 +10°C° 0 mm 3 m/S 698 mmHg 47%
    01:00 +9°C° 0 mm 3 m/S 698 mmHg 48%
    02:00 +9°C° 0 mm 3 m/S 698 mmHg 48%
    03:00 +9°C° 0 mm 3 m/S 698 mmHg 50%
    04:00 +8°C° 0 mm 2 m/S 697 mmHg 52%
    05:00 +8°C° 0 mm 2 m/S 697 mmHg 55%
    06:00 +8°C° 0 mm 2 m/S 697 mmHg 53%
    07:00 +9°C° 0 mm 2 m/S 698 mmHg 51%
    08:00 +9°C° 0 mm 2 m/S 698 mmHg 49%
    09:00 +13°C° 0 mm 2 m/S 698 mmHg 42%
    10:00 +15°C° 0 mm 2 m/S 699 mmHg 35%
    11:00 +18°C° 0 mm 2 m/S 699 mmHg 28%
    12:00 +18°C° 0 mm 2 m/S 698 mmHg 27%
    13:00 +19°C° 0 mm 2 m/S 698 mmHg 26%
    14:00 +19°C° 0 mm 2 m/S 697 mmHg 25%
    15:00 +19°C° 0 mm 2 m/S 696 mmHg 28%
    16:00 +18°C° 0 mm 2 m/S 696 mmHg 31%
    17:00 +17°C° 0 mm 2 m/S 696 mmHg 34%
    18:00 +15°C° 0 mm 2 m/S 696 mmHg 39%
    19:00 +13°C° 0 mm 2 m/S 695 mmHg 45%
    20:00 +12°C° 0 mm 2 m/S 695 mmHg 50%
    21:00 +12°C° 0 mm 2 m/S 695 mmHg 48%
    22:00 +12°C° 0 mm 2 m/S 696 mmHg 47%
    23:00 +12°C° 0 mm 2 m/S 696 mmHg 46%

    28 Mai, Dienstag

    Zeit Temperatur Niederschläge Wind Luftdruck Luftfeuchtigkeit
    00:00 +12°C° 0 mm 2 m/S 695 mmHg 46%
    01:00 +12°C° 0 mm 2 m/S 695 mmHg 47%
    02:00 +10°C° 0 mm 3 m/S 695 mmHg 48%
    03:00 +10°C° 0 mm 3 m/S 695 mmHg 54%
    04:00 +10°C° 0 mm 3 m/S 695 mmHg 60%
    05:00 +10°C° 0 mm 3 m/S 695 mmHg 66%
    06:00 +10°C° 0 mm 3 m/S 695 mmHg 65%
    07:00 +10°C° 0 mm 3 m/S 696 mmHg 64%
    08:00 +11°C° 0 mm 3 m/S 696 mmHg 64%
    09:00 +13°C° 0 mm 3 m/S 697 mmHg 57%
    10:00 +16°C° 0 mm 3 m/S 697 mmHg 50%
    11:00 +18°C° 0 mm 3 m/S 698 mmHg 43%
    12:00 +18°C° 0 mm 2 m/S 697 mmHg 42%
    13:00 +19°C° 0 mm 2 m/S 697 mmHg 41%
    14:00 +19°C° 0 mm 2 m/S 697 mmHg 40%
    15:00 +19°C° 0 mm 2 m/S 696 mmHg 43%
    16:00 +18°C° 0 mm 2 m/S 696 mmHg 47%
    17:00 +17°C° 0 mm 2 m/S 696 mmHg 50%
    18:00 +16°C° 0 mm 2 m/S 696 mmHg 53%
    19:00 +14°C° 0 mm 3 m/S 696 mmHg 56%
    20:00 +12°C° 0 mm 4 m/S 696 mmHg 59%
    21:00 +12°C° 0 mm 4 m/S 696 mmHg 61%
    22:00 +12°C° 0 mm 4 m/S 696 mmHg 63%
    23:00 +11°C° 0 mm 4 m/S 696 mmHg 65%

    29 Mai, Mittwoch

    Zeit Temperatur Niederschläge Wind Luftdruck Luftfeuchtigkeit
    00:00 +11°C° 0 mm 3 m/S 696 mmHg 68%
    01:00 +11°C° 0 mm 3 m/S 696 mmHg 70%
    02:00 +12°C° 0 mm 2 m/S 696 mmHg 73%
    03:00 +12°C° 0 mm 2 m/S 696 mmHg 76%
    04:00 +12°C° 0 mm 2 m/S 695 mmHg 79%
    05:00 +12°C° 0 mm 1 m/S 695 mmHg 82%
    06:00 +12°C° 0 mm 1 m/S 696 mmHg 82%
    07:00 +13°C° 0 mm 1 m/S 696 mmHg 82%
    08:00 +13°C° 0 mm 2 m/S 696 mmHg 82%
    09:00 +14°C° 0.1 mm 2 m/S 697 mmHg 76%
    10:00 +15°C° 0.1 mm 2 m/S 697 mmHg 70%
    11:00 +17°C° 0.1 mm 3 m/S 697 mmHg 64%
    12:00 +17°C° 0.1 mm 3 m/S 697 mmHg 62%
    13:00 +17°C° 0.1 mm 3 m/S 696 mmHg 60%
    14:00 +18°C° 0.1 mm 3 m/S 696 mmHg 57%
    15:00 +17°C° 0.1 mm 3 m/S 696 mmHg 60%
    16:00 +16°C° 0.1 mm 2 m/S 696 mmHg 62%
    17:00 +16°C° 0.1 mm 2 m/S 696 mmHg 64%
    18:00 +14°C° 0 mm 2 m/S 696 mmHg 71%
    19:00 +13°C° 0 mm 1 m/S 696 mmHg 79%
    20:00 +11°C° 0 mm 1 m/S 696 mmHg 86%
    21:00 +11°C° 0 mm 1 m/S 696 mmHg 87%
    22:00 +10°C° 0 mm 1 m/S 696 mmHg 87%
    23:00 +10°C° 0 mm 1 m/S 697 mmHg 88%

    30 Mai, Donnerstag

    Zeit Temperatur Niederschläge Wind Luftdruck Luftfeuchtigkeit
    00:00 +10°C° 0 mm 1 m/S 697 mmHg 88%
    01:00 +9°C° 0 mm 1 m/S 697 mmHg 89%
    02:00 +9°C° 0 mm 1 m/S 696 mmHg 89%
    03:00 +8°C° 0 mm 1 m/S 697 mmHg 89%
    04:00 +8°C° 0 mm 1 m/S 697 mmHg 89%
    05:00 +8°C° 0 mm 1 m/S 697 mmHg 89%
    06:00 +9°C° 0 mm 1 m/S 697 mmHg 86%
    07:00 +9°C° 0 mm 1 m/S 697 mmHg 84%
    08:00 +9°C° 0 mm 2 m/S 698 mmHg 81%
    09:00 +12°C° 0 mm 2 m/S 698 mmHg 70%
    10:00 +14°C° 0 mm 2 m/S 699 mmHg 59%
    11:00 +17°C° 0 mm 2 m/S 699 mmHg 48%
    12:00 +17°C° 0 mm 2 m/S 699 mmHg 44%
    13:00 +18°C° 0 mm 2 m/S 698 mmHg 41%
    14:00 +19°C° 0 mm 2 m/S 698 mmHg 37%
    15:00 +19°C° 0 mm 1 m/S 698 mmHg 41%
    16:00 +18°C° 0 mm 1 m/S 697 mmHg 44%
    17:00 +16°C° 0 mm 1 m/S 697 mmHg 48%
    18:00 +15°C° 0 mm 2 m/S 697 mmHg 59%
    19:00 +13°C° 0 mm 2 m/S 697 mmHg 71%
    20:00 +10°C° 0 mm 3 m/S 697 mmHg 82%
    21:00 +10°C° 0 mm 2 m/S 697 mmHg 82%
    22:00 +10°C° 0 mm 2 m/S 697 mmHg 81%
    23:00 +9°C° 0 mm 2 m/S 696 mmHg 80%
    Mehr zeigen